Time,TemperatureF,DewpointF,PressureIn,WindDirection,WindDirectionDegrees,WindSpeedMPH,WindSpeedGustMPH,Humidity,HourlyPrecipIn,Conditions,Clouds,dailyrainin,SoftwareType,DateUTC
2013-06-02 00:04:00,54.3,47.9,29.10,NNE,22,0.0,0.0,79,0.00,,---,0.00,VWS V13.01,2013-06-02 05:04:00,
2013-06-02 00:10:00,54.1,47.7,29.10,NNW,338,4.0,4.0,79,0.00,,---,0.00,VWS V13.01,2013-06-02 05:10:00,
2013-06-02 00:16:00,53.7,47.0,29.11,NW,315,1.2,1.2,78,0.00,,---,0.00,VWS V13.01,2013-06-02 05:16:00,
2013-06-02 00:22:00,53.4,46.7,29.12,NW,315,0.0,0.0,78,0.00,,---,0.00,VWS V13.01,2013-06-02 05:22:00,
2013-06-02 00:28:00,53.2,46.5,29.12,NNW,338,4.0,4.0,78,0.00,,---,0.00,VWS V13.01,2013-06-02 05:28:00,
2013-06-02 00:34:00,52.8,46.1,29.13,North,0,0.0,0.0,78,0.00,,---,0.00,VWS V13.01,2013-06-02 05:34:00,
2013-06-02 00:40:00,52.5,45.8,29.13,North,0,0.4,0.4,78,0.00,,---,0.00,VWS V13.01,2013-06-02 05:40:00,
2013-06-02 00:46:00,52.3,45.7,29.14,NNW,338,1.2,1.2,78,0.00,,---,0.00,VWS V13.01,2013-06-02 05:46:00,
2013-06-02 00:52:00,52.1,45.8,29.14,NNW,338,0.4,0.4,79,0.00,,---,0.00,VWS V13.01,2013-06-02 05:52:00,
2013-06-02 00:58:00,52.1,45.8,29.14,North,0,1.2,1.2,79,0.00,,---,0.00,VWS V13.01,2013-06-02 05:58:00,
2013-06-02 01:04:00,51.9,45.6,29.14,NNW,338,0.4,0.4,79,0.00,,---,0.00,VWS V13.01,2013-06-02 06:04:00,
2013-06-02 01:10:00,51.9,45.6,29.14,NNW,338,0.0,0.0,79,0.00,,---,0.00,VWS V13.01,2013-06-02 06:10:00,
2013-06-02 01:16:00,51.8,45.5,29.15,NNE,22,0.0,0.0,79,0.00,,---,0.00,VWS V13.01,2013-06-02 06:16:00,
2013-06-02 01:22:00,51.6,45.3,29.14,NNE,22,0.0,0.0,79,0.00,,---,0.00,VWS V13.01,2013-06-02 06:22:00,
2013-06-02 01:28:00,51.6,45.3,29.14,NNE,22,1.6,1.6,79,0.00,,---,0.00,VWS V13.01,2013-06-02 06:28:00,
2013-06-02 01:34:00,51.6,45.3,29.14,North,0,0.0,0.0,79,0.00,,---,0.00,VWS V13.01,2013-06-02 06:34:00,
2013-06-02 01:40:00,51.4,45.1,29.14,NNE,22,0.0,0.0,79,0.00,,---,0.00,VWS V13.01,2013-06-02 06:40:00,
2013-06-02 01:46:00,51.2,44.9,29.15,NNE,22,4.8,4.8,79,0.00,,---,0.00,VWS V13.01,2013-06-02 06:46:00,
2013-06-02 01:52:00,51.2,44.9,29.14,North,0,0.0,0.0,79,0.00,,---,0.00,VWS V13.01,2013-06-02 06:52:00,
2013-06-02 01:58:00,51.0,44.7,29.15,NNW,338,0.0,0.0,79,0.00,,---,0.00,VWS V13.01,2013-06-02 06:58:00,
2013-06-02 02:05:00,50.9,44.6,29.15,North,0,0.0,0.0,79,0.00,,---,0.00,VWS V13.01,2013-06-02 07:05:00,
2013-06-02 02:11:00,50.7,44.4,29.15,NNW,338,0.0,0.0,79,0.00,,---,0.00,VWS V13.01,2013-06-02 07:11:00,
2013-06-02 02:17:00,50.7,44.1,29.15,North,0,0.0,0.0,78,0.00,,---,0.00,VWS V13.01,2013-06-02 07:17:00,
2013-06-02 02:23:00,50.5,43.6,29.16,NNW,338,1.6,1.6,77,0.00,,---,0.00,VWS V13.01,2013-06-02 07:23:00,
2013-06-02 02:29:00,50.3,43.4,29.15,North,0,0.0,0.0,77,0.00,,---,0.00,VWS V13.01,2013-06-02 07:29:00,
2013-06-02 02:35:00,50.3,43.7,29.15,North,0,0.0,0.0,78,0.00,,---,0.00,VWS V13.01,2013-06-02 07:35:00,
2013-06-02 02:41:00,50.3,43.7,29.16,NNW,338,0.0,0.0,78,0.00,,---,0.00,VWS V13.01,2013-06-02 07:41:00,
2013-06-02 02:47:00,50.3,43.7,29.16,NNW,338,0.8,0.8,78,0.00,,---,0.00,VWS V13.01,2013-06-02 07:47:00,
2013-06-02 02:53:00,50.3,43.4,29.16,North,0,0.0,0.0,77,0.00,,---,0.00,VWS V13.01,2013-06-02 07:53:00,
2013-06-02 02:59:00,50.1,43.2,29.17,NNE,22,0.0,0.0,77,0.00,,---,0.00,VWS V13.01,2013-06-02 07:59:00,
2013-06-02 03:05:00,49.8,42.9,29.16,North,0,0.8,0.8,77,0.00,,---,0.00,VWS V13.01,2013-06-02 08:05:00,
2013-06-02 03:11:00,49.8,42.9,29.17,North,0,0.0,0.0,77,0.00,,---,0.00,VWS V13.01,2013-06-02 08:11:00,
2013-06-02 03:17:00,49.6,42.7,29.17,North,0,0.0,0.0,77,0.00,,---,0.00,VWS V13.01,2013-06-02 08:17:00,
2013-06-02 03:23:00,49.6,42.7,29.17,NNE,22,0.4,0.4,77,0.00,,---,0.00,VWS V13.01,2013-06-02 08:23:00,
2013-06-02 03:29:00,49.2,42.3,29.17,NNE,22,0.8,0.8,77,0.00,,---,0.00,VWS V13.01,2013-06-02 08:29:00,
2013-06-02 03:35:00,49.2,42.6,29.17,North,0,0.0,0.0,78,0.00,,---,0.00,VWS V13.01,2013-06-02 08:35:00,
2013-06-02 03:41:00,49.2,42.6,29.16,NW,315,0.8,0.8,78,0.00,,---,0.00,VWS V13.01,2013-06-02 08:41:00,
2013-06-02 03:47:00,49.4,42.8,29.17,NNE,22,0.0,0.0,78,0.00,,---,0.00,VWS V13.01,2013-06-02 08:47:00,
2013-06-02 03:53:00,49.6,43.0,29.17,NNE,22,0.0,0.0,78,0.00,,---,0.00,VWS V13.01,2013-06-02 08:53:00,
2013-06-02 03:59:00,49.6,43.0,29.16,NNW,338,0.8,0.8,78,0.00,,---,0.00,VWS V13.01,2013-06-02 08:59:00,
2013-06-02 04:05:00,49.6,43.0,29.17,NNW,338,0.0,0.0,78,0.00,,---,0.00,VWS V13.01,2013-06-02 09:05:00,
2013-06-02 04:11:00,49.6,43.0,29.17,NNE,22,0.0,0.0,78,0.00,,---,0.00,VWS V13.01,2013-06-02 09:11:00,
2013-06-02 04:17:00,49.6,43.0,29.17,North,0,0.0,0.0,78,0.00,,---,0.00,VWS V13.01,2013-06-02 09:17:00,
2013-06-02 04:23:00,49.6,43.0,29.17,North,0,0.0,0.0,78,0.00,,---,0.00,VWS V13.01,2013-06-02 09:23:00,
2013-06-02 04:29:00,49.6,43.0,29.17,North,0,0.0,0.0,78,0.00,,---,0.00,VWS V13.01,2013-06-02 09:29:00,
2013-06-02 04:35:00,49.6,43.4,29.17,North,0,0.0,0.0,79,0.00,,---,0.00,VWS V13.01,2013-06-02 09:35:00,
2013-06-02 04:41:00,49.6,43.4,29.17,North,0,0.0,0.0,79,0.00,,---,0.00,VWS V13.01,2013-06-02 09:41:00,
2013-06-02 04:48:00,49.6,43.0,29.17,North,0,0.0,0.0,78,0.00,,---,0.00,VWS V13.01,2013-06-02 09:48:00,
2013-06-02 04:54:00,49.6,43.0,29.17,NNE,22,0.0,0.0,78,0.00,,---,0.00,VWS V13.01,2013-06-02 09:54:00,
2013-06-02 05:00:00,49.6,43.0,29.18,North,0,2.6,2.6,78,0.00,,---,0.00,VWS V13.01,2013-06-02 10:00:00,
2013-06-02 05:06:00,49.6,43.0,29.18,North,0,0.0,0.0,78,0.00,,---,0.00,VWS V13.01,2013-06-02 10:06:00,
2013-06-02 05:12:00,49.6,43.0,29.19,NNE,22,0.0,0.0,78,0.00,,---,0.00,VWS V13.01,2013-06-02 10:12:00,
2013-06-02 05:18:00,49.6,43.0,29.18,North,0,0.0,0.0,78,0.00,,---,0.00,VWS V13.01,2013-06-02 10:18:00,
2013-06-02 05:24:00,49.6,43.0,29.19,NNE,22,0.0,0.0,78,0.00,,---,0.00,VWS V13.01,2013-06-02 10:24:00,
2013-06-02 05:30:00,49.6,43.0,29.20,North,0,0.0,0.0,78,0.00,,---,0.00,VWS V13.01,2013-06-02 10:30:00,
2013-06-02 05:36:00,49.4,42.8,29.20,NNW,338,1.6,1.6,78,0.00,,---,0.00,VWS V13.01,2013-06-02 10:36:00,
2013-06-02 05:42:00,49.2,42.3,29.20,NNE,22,0.0,0.0,77,0.00,,---,0.00,VWS V13.01,2013-06-02 10:42:00,
2013-06-02 05:48:00,49.4,42.5,29.20,North,0,0.0,0.0,77,0.00,,---,0.00,VWS V13.01,2013-06-02 10:48:00,
2013-06-02 05:54:00,49.2,42.3,29.20,North,0,0.0,0.0,77,0.00,,---,0.00,VWS V13.01,2013-06-02 10:54:00,
2013-06-02 06:00:00,49.2,41.6,29.20,NE,45,0.0,0.0,75,0.00,,---,0.00,VWS V13.01,2013-06-02 11:00:00,
2013-06-02 06:06:00,48.9,41.0,29.21,North,0,0.0,0.0,74,0.00,,---,0.00,VWS V13.01,2013-06-02 11:06:00,
2013-06-02 06:12:00,48.5,40.6,29.21,NW,315,1.2,1.2,74,0.00,,---,0.00,VWS V13.01,2013-06-02 11:12:00,
2013-06-02 06:18:00,48.0,40.1,29.21,North,0,0.0,0.0,74,0.00,,---,0.00,VWS V13.01,2013-06-02 11:18:00,
2013-06-02 06:24:00,47.4,39.9,29.21,NNW,338,1.2,1.2,75,0.00,,---,0.00,VWS V13.01,2013-06-02 11:24:00,
2013-06-02 06:30:00,47.4,40.2,29.22,NNW,338,0.0,0.0,76,0.00,,---,0.00,VWS V13.01,2013-06-02 11:30:00,
2013-06-02 06:36:00,47.3,40.1,29.22,North,0,0.0,0.0,76,0.00,,---,0.00,VWS V13.01,2013-06-02 11:36:00,
2013-06-02 06:42:00,47.1,40.3,29.23,NNW,338,0.8,0.8,77,0.00,,---,0.00,VWS V13.01,2013-06-02 11:42:00,
2013-06-02 06:48:00,47.1,39.9,29.23,North,0,0.0,0.0,76,0.00,,---,0.00,VWS V13.01,2013-06-02 11:48:00,
2013-06-02 06:54:00,46.9,39.7,29.23,North,0,0.0,0.0,76,0.00,,---,0.00,VWS V13.01,2013-06-02 11:54:00,
2013-06-02 07:00:00,46.9,40.1,29.24,North,0,0.0,0.0,77,0.00,,---,0.00,VWS V13.01,2013-06-02 12:00:00,
2013-06-02 07:06:00,47.1,40.3,29.24,North,0,0.0,0.0,77,0.00,,---,0.00,VWS V13.01,2013-06-02 12:06:00,
2013-06-02 07:12:00,47.1,40.3,29.25,North,0,0.0,0.0,77,0.00,,---,0.00,VWS V13.01,2013-06-02 12:12:00,
2013-06-02 07:18:00,47.3,40.5,29.25,North,0,0.0,0.0,77,0.00,,---,0.00,VWS V13.01,2013-06-02 12:18:00,
2013-06-02 07:24:00,47.3,40.5,29.25,NNW,338,0.0,0.0,77,0.00,,---,0.00,VWS V13.01,2013-06-02 12:24:00,
2013-06-02 07:30:00,47.4,40.2,29.25,NE,45,0.0,0.0,76,0.00,,---,0.00,VWS V13.01,2013-06-02 12:30:00,
2013-06-02 07:36:00,47.6,40.4,29.25,North,0,0.0,0.0,76,0.00,,---,0.00,VWS V13.01,2013-06-02 12:36:00,
2013-06-02 07:43:00,47.8,40.3,29.25,NNW,338,0.0,0.0,75,0.00,,---,0.00,VWS V13.01,2013-06-02 12:43:00,
2013-06-02 07:49:00,47.6,39.7,29.26,NNW,338,0.0,0.0,74,0.00,,---,0.00,VWS V13.01,2013-06-02 12:49:00,
2013-06-02 07:55:00,47.6,40.1,29.25,North,0,0.0,0.0,75,0.00,,---,0.00,VWS V13.01,2013-06-02 12:55:00,
2013-06-02 08:01:00,47.6,40.1,29.25,North,0,0.0,0.0,75,0.00,,---,0.00,VWS V13.01,2013-06-02 13:01:00,
2013-06-02 08:07:00,48.0,40.5,29.26,North,0,0.0,0.0,75,0.00,,---,0.00,VWS V13.01,2013-06-02 13:07:00,
2013-06-02 08:13:00,48.3,40.4,29.27,North,0,0.0,0.0,74,0.00,,---,0.00,VWS V13.01,2013-06-02 13:13:00,
2013-06-02 08:19:00,48.5,40.6,29.26,NNW,338,0.0,0.0,74,0.00,,---,0.00,VWS V13.01,2013-06-02 13:19:00,
2013-06-02 08:25:00,48.7,40.8,29.26,NE,45,0.0,0.0,74,0.00,,---,0.00,VWS V13.01,2013-06-02 13:25:00,
2013-06-02 08:31:00,48.9,40.6,29.26,North,0,0.0,0.0,73,0.00,,---,0.00,VWS V13.01,2013-06-02 13:31:00,
2013-06-02 08:37:00,49.2,40.9,29.27,NNE,22,0.0,0.0,73,0.00,,---,0.00,VWS V13.01,2013-06-02 13:37:00,
2013-06-02 08:43:00,49.4,41.1,29.27,North,0,0.0,0.0,73,0.00,,---,0.00,VWS V13.01,2013-06-02 13:43:00,
2013-06-02 08:49:00,49.6,41.3,29.27,North,0,0.0,0.0,73,0.00,,---,0.00,VWS V13.01,2013-06-02 13:49:00,
2013-06-02 08:55:00,49.6,41.0,29.27,North,0,0.0,0.0,72,0.00,,---,0.00,VWS V13.01,2013-06-02 13:55:00,
2013-06-02 09:01:00,49.6,41.3,29.27,North,0,0.0,0.0,73,0.00,,---,0.00,VWS V13.01,2013-06-02 14:01:00,
2013-06-02 09:07:00,49.8,41.5,29.27,North,0,0.0,0.0,73,0.00,,---,0.00,VWS V13.01,2013-06-02 14:07:00,
2013-06-02 09:13:00,49.8,41.5,29.28,NNW,338,0.0,0.0,73,0.00,,---,0.00,VWS V13.01,2013-06-02 14:13:00,
2013-06-02 09:19:00,49.8,41.5,29.28,North,0,0.0,0.0,73,0.00,,---,0.00,VWS V13.01,2013-06-02 14:19:00,
2013-06-02 09:25:00,50.0,41.7,29.27,NNE,22,0.0,0.0,73,0.00,,---,0.00,VWS V13.01,2013-06-02 14:25:00,
2013-06-02 09:31:00,50.1,41.8,29.27,North,0,0.0,0.0,73,0.00,,---,0.00,VWS V13.01,2013-06-02 14:31:00,
2013-06-02 09:37:00,50.3,41.6,29.28,NNW,338,0.0,0.0,72,0.00,,---,0.00,VWS V13.01,2013-06-02 14:37:00,
2013-06-02 09:43:00,50.5,41.8,29.28,North,0,0.0,0.0,72,0.00,,---,0.00,VWS V13.01,2013-06-02 14:43:00,
2013-06-02 09:49:00,50.7,42.0,29.28,NNW,338,0.0,0.0,72,0.00,,---,0.00,VWS V13.01,2013-06-02 14:49:00,
2013-06-02 09:55:00,51.0,42.3,29.28,North,0,0.0,0.0,72,0.00,,---,0.00,VWS V13.01,2013-06-02 14:55:00,
2013-06-02 10:01:00,51.2,42.5,29.28,North,0,0.0,0.0,72,0.00,,---,0.00,VWS V13.01,2013-06-02 15:01:00,
2013-06-02 10:07:00,51.4,42.3,29.28,NNE,22,0.0,0.0,71,0.00,,---,0.00,VWS V13.01,2013-06-02 15:07:00,
2013-06-02 10:13:00,51.4,42.7,29.28,North,0,0.0,0.0,72,0.00,,---,0.00,VWS V13.01,2013-06-02 15:13:00,
2013-06-02 10:19:00,51.4,42.7,29.28,North,0,0.0,0.0,72,0.00,,---,0.00,VWS V13.01,2013-06-02 15:19:00,
2013-06-02 10:26:00,51.6,42.5,29.29,North,0,0.0,0.0,71,0.00,,---,0.00,VWS V13.01,2013-06-02 15:26:00,
2013-06-02 10:32:00,51.6,42.2,29.28,NNW,338,0.0,0.0,70,0.00,,---,0.00,VWS V13.01,2013-06-02 15:32:00,
2013-06-02 10:38:00,51.8,42.3,29.28,NNW,338,0.0,0.0,70,0.00,,---,0.00,VWS V13.01,2013-06-02 15:38:00,
2013-06-02 10:44:00,52.5,43.0,29.28,North,0,0.0,0.0,70,0.00,,---,0.00,VWS V13.01,2013-06-02 15:44:00,
2013-06-02 10:50:00,53.2,43.7,29.28,NNE,22,0.0,0.0,70,0.00,,---,0.00,VWS V13.01,2013-06-02 15:50:00,
2013-06-02 10:56:00,53.4,43.5,29.28,NNE,22,0.0,0.0,69,0.00,,---,0.00,VWS V13.01,2013-06-02 15:56:00,
2013-06-02 11:02:00,53.2,43.3,29.28,NE,45,0.0,0.0,69,0.00,,---,0.00,VWS V13.01,2013-06-02 16:02:00,
2013-06-02 11:08:00,53.4,43.1,29.29,North,0,0.0,0.0,68,0.00,,---,0.00,VWS V13.01,2013-06-02 16:08:00,
2013-06-02 11:14:00,53.7,43.4,29.29,NNW,338,0.0,0.0,68,0.00,,---,0.00,VWS V13.01,2013-06-02 16:14:00,
2013-06-02 11:20:00,53.9,43.6,29.29,NNE,22,0.0,0.0,68,0.00,,---,0.00,VWS V13.01,2013-06-02 16:20:00,
2013-06-02 11:26:00,54.3,43.6,29.29,NNW,338,0.0,0.0,67,0.00,,---,0.00,VWS V13.01,2013-06-02 16:26:00,
2013-06-02 11:32:00,54.1,43.8,29.29,North,0,0.0,0.0,68,0.00,,---,0.00,VWS V13.01,2013-06-02 16:32:00,
2013-06-02 11:38:00,54.3,43.6,29.29,NNW,338,0.0,0.0,67,0.00,,---,0.00,VWS V13.01,2013-06-02 16:38:00,
2013-06-02 11:44:00,54.3,43.2,29.28,North,0,0.0,0.0,66,0.00,,---,0.00,VWS V13.01,2013-06-02 16:44:00,
2013-06-02 11:50:00,54.6,43.5,29.28,North,0,0.0,0.0,66,0.00,,---,0.00,VWS V13.01,2013-06-02 16:50:00,
2013-06-02 11:56:00,55.2,44.0,29.28,NNE,22,0.0,0.0,66,0.00,,---,0.00,VWS V13.01,2013-06-02 16:56:00,
2013-06-02 12:02:00,55.5,43.9,29.28,North,0,0.0,0.0,65,0.00,,---,0.00,VWS V13.01,2013-06-02 17:02:00,
2013-06-02 12:08:00,55.7,44.1,29.28,North,0,0.0,0.0,65,0.00,,---,0.00,VWS V13.01,2013-06-02 17:08:00,
2013-06-02 12:14:00,55.9,43.9,29.28,North,0,0.0,0.0,64,0.00,,---,0.00,VWS V13.01,2013-06-02 17:14:00,
2013-06-02 12:20:00,56.1,44.5,29.28,NNW,338,0.0,0.0,65,0.00,,---,0.00,VWS V13.01,2013-06-02 17:20:00,
2013-06-02 12:26:00,56.4,44.4,29.28,NNE,22,0.0,0.0,64,0.00,,---,0.00,VWS V13.01,2013-06-02 17:26:00,
2013-06-02 12:32:00,56.4,44.4,29.28,NW,315,0.0,0.0,64,0.00,,---,0.00,VWS V13.01,2013-06-02 17:32:00,
2013-06-02 12:38:00,57.0,45.0,29.28,NNE,22,0.0,0.0,64,0.00,,---,0.00,VWS V13.01,2013-06-02 17:38:00,
2013-06-02 12:44:00,57.2,44.7,29.28,North,0,0.0,0.0,63,0.00,,---,0.00,VWS V13.01,2013-06-02 17:44:00,
2013-06-02 12:50:00,57.5,45.0,29.28,North,0,0.0,0.0,63,0.00,,---,0.00,VWS V13.01,2013-06-02 17:50:00,
2013-06-02 12:56:00,57.5,44.2,29.28,North,0,0.0,0.0,61,0.00,,---,0.00,VWS V13.01,2013-06-02 17:56:00,
2013-06-02 13:02:00,57.7,44.4,29.28,NNW,338,0.0,0.0,61,0.00,,---,0.00,VWS V13.01,2013-06-02 18:02:00,
2013-06-02 13:08:00,58.1,44.7,29.27,North,0,0.0,0.0,61,0.00,,---,0.00,VWS V13.01,2013-06-02 18:08:00,
2013-06-02 13:14:00,58.4,44.6,29.27,North,0,0.0,0.0,60,0.00,,---,0.00,VWS V13.01,2013-06-02 18:14:00,
2013-06-02 13:20:00,58.6,44.8,29.27,NNW,338,0.0,0.0,60,0.00,,---,0.00,VWS V13.01,2013-06-02 18:20:00,
2013-06-02 13:27:00,58.8,44.5,29.27,NNE,22,0.0,0.0,59,0.00,,---,0.00,VWS V13.01,2013-06-02 18:27:00,
2013-06-02 13:33:00,59.1,44.3,29.26,NNW,338,0.0,0.0,58,0.00,,---,0.00,VWS V13.01,2013-06-02 18:33:00,
2013-06-02 13:39:00,59.7,44.9,29.26,North,0,0.0,0.0,58,0.00,,---,0.00,VWS V13.01,2013-06-02 18:39:00,
2013-06-02 13:45:00,60.0,45.2,29.27,North,0,0.0,0.0,58,0.00,,---,0.00,VWS V13.01,2013-06-02 18:45:00,
2013-06-02 13:51:00,60.6,45.3,29.27,NNW,338,0.0,0.0,57,0.00,,---,0.00,VWS V13.01,2013-06-02 18:51:00,
2013-06-02 13:57:00,61.3,45.5,29.27,NNE,22,0.0,0.0,56,0.00,,---,0.00,VWS V13.01,2013-06-02 18:57:00,
2013-06-02 14:03:00,61.8,45.5,29.27,North,0,0.0,0.0,55,0.00,,---,0.00,VWS V13.01,2013-06-02 19:03:00,
2013-06-02 14:09:00,62.2,45.4,29.27,North,0,0.0,0.0,54,0.00,,---,0.00,VWS V13.01,2013-06-02 19:09:00,
2013-06-02 14:15:00,62.4,45.5,29.27,North,0,0.0,0.0,54,0.00,,---,0.00,VWS V13.01,2013-06-02 19:15:00,
2013-06-02 14:21:00,62.7,46.3,29.26,North,0,0.0,0.0,55,0.00,,---,0.00,VWS V13.01,2013-06-02 19:21:00,
2013-06-02 14:27:00,63.3,46.4,29.27,North,0,0.0,0.0,54,0.00,,---,0.00,VWS V13.01,2013-06-02 19:27:00,
2013-06-02 14:33:00,63.5,46.1,29.27,NNW,338,0.0,0.0,53,0.00,,---,0.00,VWS V13.01,2013-06-02 19:33:00,
2013-06-02 14:39:00,63.1,45.2,29.27,NNW,338,0.0,0.0,52,0.00,,---,0.00,VWS V13.01,2013-06-02 19:39:00,
2013-06-02 14:45:00,63.5,46.6,29.26,NNW,338,0.0,0.0,54,0.00,,---,0.00,VWS V13.01,2013-06-02 19:45:00,
2013-06-02 14:51:00,63.5,46.1,29.27,North,0,0.0,0.0,53,0.00,,---,0.00,VWS V13.01,2013-06-02 19:51:00,
2013-06-02 14:57:00,63.8,46.4,29.26,North,0,0.0,0.0,53,0.00,,---,0.00,VWS V13.01,2013-06-02 19:57:00,
2013-06-02 15:03:00,64.2,46.2,29.27,North,0,0.0,0.0,52,0.00,,---,0.00,VWS V13.01,2013-06-02 20:03:00,
2013-06-02 15:09:00,64.5,46.0,29.26,NNW,338,0.0,0.0,51,0.00,,---,0.00,VWS V13.01,2013-06-02 20:09:00,
2013-06-02 15:15:00,64.5,46.0,29.26,North,0,0.0,0.0,51,0.00,,---,0.00,VWS V13.01,2013-06-02 20:15:00,
2013-06-02 15:21:00,64.7,46.2,29.25,North,0,0.0,0.0,51,0.00,,---,0.00,VWS V13.01,2013-06-02 20:21:00,
2013-06-02 15:27:00,64.7,45.7,29.26,NNW,338,0.0,0.0,50,0.00,,---,0.00,VWS V13.01,2013-06-02 20:27:00,
2013-06-02 15:33:00,64.5,44.9,29.27,NNW,338,0.0,0.0,49,0.00,,---,0.00,VWS V13.01,2013-06-02 20:33:00,
2013-06-02 15:39:00,64.2,45.2,29.26,NNW,338,0.0,0.0,50,0.00,,---,0.00,VWS V13.01,2013-06-02 20:39:00,
2013-06-02 15:45:00,64.2,44.7,29.26,North,0,0.0,0.0,49,0.00,,---,0.00,VWS V13.01,2013-06-02 20:45:00,
2013-06-02 15:51:00,64.5,44.9,29.26,NNW,338,0.0,0.0,49,0.00,,---,0.00,VWS V13.01,2013-06-02 20:51:00,
2013-06-02 15:57:00,64.4,44.3,29.26,NNE,22,0.0,0.0,48,0.00,,---,0.00,VWS V13.01,2013-06-02 20:57:00,
2013-06-02 16:03:00,64.7,44.6,29.26,North,0,0.0,0.0,48,0.00,,---,0.00,VWS V13.01,2013-06-02 21:03:00,
2013-06-02 16:09:00,64.9,45.3,29.26,North,0,0.0,0.0,49,0.00,,---,0.00,VWS V13.01,2013-06-02 21:09:00,
2013-06-02 16:16:00,64.9,45.3,29.26,North,0,0.0,0.0,49,0.00,,---,0.00,VWS V13.01,2013-06-02 21:16:00,
2013-06-02 16:22:00,64.7,45.1,29.25,North,0,0.0,0.0,49,0.00,,---,0.00,VWS V13.01,2013-06-02 21:22:00,
2013-06-02 16:28:00,64.5,43.8,29.26,NNW,338,0.0,0.0,47,0.00,,---,0.00,VWS V13.01,2013-06-02 21:28:00,
2013-06-02 16:34:00,64.2,43.6,29.25,NNW,338,0.0,0.0,47,0.00,,---,0.00,VWS V13.01,2013-06-02 21:34:00,
2013-06-02 16:40:00,64.5,44.9,29.25,NNW,338,0.0,0.0,49,0.00,,---,0.00,VWS V13.01,2013-06-02 21:40:00,
2013-06-02 16:46:00,64.5,44.9,29.25,North,0,0.0,0.0,49,0.00,,---,0.00,VWS V13.01,2013-06-02 21:46:00,
2013-06-02 16:52:00,64.5,44.9,29.25,North,0,0.0,0.0,49,0.00,,---,0.00,VWS V13.01,2013-06-02 21:52:00,
2013-06-02 16:58:00,64.4,44.3,29.25,North,0,0.0,0.0,48,0.00,,---,0.00,VWS V13.01,2013-06-02 21:58:00,
2013-06-02 17:04:00,64.0,44.5,29.26,NNW,338,0.0,0.0,49,0.00,,---,0.00,VWS V13.01,2013-06-02 22:04:00,
2013-06-02 17:10:00,63.6,44.1,29.25,NNW,338,0.0,0.0,49,0.00,,---,0.00,VWS V13.01,2013-06-02 22:10:00,
2013-06-02 17:16:00,63.5,44.0,29.26,North,0,0.0,0.0,49,0.00,,---,0.00,VWS V13.01,2013-06-02 22:16:00,
2013-06-02 17:22:00,63.5,44.0,29.25,NNW,338,0.0,0.0,49,0.00,,---,0.00,VWS V13.01,2013-06-02 22:22:00,
2013-06-02 17:28:00,63.3,43.8,29.25,NNW,338,0.0,0.0,49,0.00,,---,0.00,VWS V13.01,2013-06-02 22:28:00,
2013-06-02 17:34:00,63.5,44.5,29.25,NNW,338,0.0,0.0,50,0.00,,---,0.00,VWS V13.01,2013-06-02 22:34:00,
2013-06-02 17:40:00,63.6,44.1,29.25,NNE,22,0.0,0.0,49,0.00,,---,0.00,VWS V13.01,2013-06-02 22:40:00,
2013-06-02 17:46:00,63.6,43.6,29.25,NNW,338,0.0,0.0,48,0.00,,---,0.00,VWS V13.01,2013-06-02 22:46:00,
2013-06-02 17:52:00,63.6,43.6,29.25,NNW,338,0.0,0.0,48,0.00,,---,0.00,VWS V13.01,2013-06-02 22:52:00,
2013-06-02 17:58:00,63.6,43.6,29.25,NNW,338,0.0,0.0,48,0.00,,---,0.00,VWS V13.01,2013-06-02 22:58:00,
2013-06-02 18:04:00,63.6,43.6,29.25,North,0,0.0,0.0,48,0.00,,---,0.00,VWS V13.01,2013-06-02 23:04:00,
2013-06-02 18:10:00,63.6,43.6,29.24,North,0,0.0,0.0,48,0.00,,---,0.00,VWS V13.01,2013-06-02 23:10:00,
2013-06-02 18:16:00,63.5,43.5,29.25,North,0,0.0,0.0,48,0.00,,---,0.00,VWS V13.01,2013-06-02 23:16:00,
2013-06-02 18:22:00,63.3,43.3,29.24,North,0,0.0,0.0,48,0.00,,---,0.00,VWS V13.01,2013-06-02 23:22:00,
2013-06-02 18:28:00,63.1,43.1,29.24,NNW,338,0.0,0.0,48,0.00,,---,0.00,VWS V13.01,2013-06-02 23:28:00,
2013-06-02 18:34:00,62.9,42.9,29.24,NNW,338,0.0,0.0,48,0.00,,---,0.00,VWS V13.01,2013-06-02 23:34:00,
2013-06-02 18:40:00,62.9,43.5,29.24,NNW,338,0.0,0.0,49,0.00,,---,0.00,VWS V13.01,2013-06-02 23:40:00,
2013-06-02 18:46:00,62.9,43.5,29.24,North,0,0.0,0.0,49,0.00,,---,0.00,VWS V13.01,2013-06-02 23:46:00,
2013-06-02 18:52:00,62.9,43.5,29.24,NNW,338,0.0,0.0,49,0.00,,---,0.00,VWS V13.01,2013-06-02 23:52:00,
2013-06-02 18:58:00,62.9,44.0,29.24,North,0,0.0,0.0,50,0.00,,---,0.00,VWS V13.01,2013-06-02 23:58:00,
2013-06-02 19:05:00,63.1,43.7,29.24,North,0,0.0,0.0,49,0.00,,---,0.00,VWS V13.01,2013-06-03 00:05:00,
2013-06-02 19:11:00,62.9,43.5,29.24,NNW,338,0.0,0.0,49,0.00,,---,0.00,VWS V13.01,2013-06-03 00:11:00,
2013-06-02 19:17:00,62.9,42.9,29.24,NNW,338,0.0,0.0,48,0.00,,---,0.00,VWS V13.01,2013-06-03 00:17:00,
2013-06-02 19:23:00,62.9,42.9,29.24,North,0,0.0,0.0,48,0.00,,---,0.00,VWS V13.01,2013-06-03 00:23:00,
2013-06-02 19:29:00,62.7,42.8,29.24,North,0,0.0,0.0,48,0.00,,---,0.00,VWS V13.01,2013-06-03 00:29:00,
2013-06-02 19:35:00,62.7,42.8,29.25,North,0,0.0,0.0,48,0.00,,---,0.00,VWS V13.01,2013-06-03 00:35:00,
2013-06-02 19:41:00,62.4,42.5,29.24,North,0,0.0,0.0,48,0.00,,---,0.00,VWS V13.01,2013-06-03 00:41:00,
2013-06-02 19:47:00,62.4,42.5,29.24,North,0,0.0,0.0,48,0.00,,---,0.00,VWS V13.01,2013-06-03 00:47:00,
2013-06-02 19:53:00,62.4,41.9,29.25,North,0,0.0,0.0,47,0.00,,---,0.00,VWS V13.01,2013-06-03 00:53:00,
2013-06-02 19:59:00,62.0,42.1,29.25,North,0,0.0,0.0,48,0.00,,---,0.00,VWS V13.01,2013-06-03 00:59:00,
2013-06-02 20:05:00,61.8,41.9,29.25,North,0,0.0,0.0,48,0.00,,---,0.00,VWS V13.01,2013-06-03 01:05:00,
2013-06-02 20:11:00,61.7,41.8,29.24,North,0,0.0,0.0,48,0.00,,---,0.00,VWS V13.01,2013-06-03 01:11:00,
2013-06-02 20:17:00,61.5,41.7,29.24,North,0,0.0,0.0,48,0.00,,---,0.00,VWS V13.01,2013-06-03 01:17:00,
2013-06-02 20:23:00,61.5,42.2,29.24,North,0,0.0,0.0,49,0.00,,---,0.00,VWS V13.01,2013-06-03 01:23:00,
2013-06-02 20:29:00,61.1,42.3,29.24,North,0,0.0,0.0,50,0.00,,---,0.00,VWS V13.01,2013-06-03 01:29:00,
2013-06-02 20:35:00,60.9,42.2,29.24,North,0,0.0,0.0,50,0.00,,---,0.00,VWS V13.01,2013-06-03 01:35:00,
2013-06-02 20:41:00,60.6,42.4,29.24,North,0,0.0,0.0,51,0.00,,---,0.00,VWS V13.01,2013-06-03 01:41:00,
2013-06-02 20:47:00,60.4,42.2,29.24,North,0,0.0,0.0,51,0.00,,---,0.00,VWS V13.01,2013-06-03 01:47:00,
2013-06-02 20:53:00,60.4,42.2,29.24,North,0,0.0,0.0,51,0.00,,---,0.00,VWS V13.01,2013-06-03 01:53:00,
2013-06-02 20:59:00,60.0,42.3,29.24,North,0,0.0,0.0,52,0.00,,---,0.00,VWS V13.01,2013-06-03 01:59:00,
2013-06-02 21:05:00,59.7,42.6,29.24,North,0,0.0,0.0,53,0.00,,---,0.00,VWS V13.01,2013-06-03 02:05:00,
2013-06-02 21:11:00,59.3,42.2,29.24,North,0,0.0,0.0,53,0.00,,---,0.00,VWS V13.01,2013-06-03 02:11:00,
2013-06-02 21:17:00,58.8,42.2,29.24,North,0,0.0,0.0,54,0.00,,---,0.00,VWS V13.01,2013-06-03 02:17:00,
2013-06-02 21:24:00,58.8,42.7,29.24,North,0,0.0,0.0,55,0.00,,---,0.00,VWS V13.01,2013-06-03 02:24:00,
2013-06-02 21:30:00,58.2,42.1,29.24,North,0,0.0,0.0,55,0.00,,---,0.00,VWS V13.01,2013-06-03 02:30:00,
2013-06-02 21:36:00,57.9,42.3,29.24,North,0,0.0,0.0,56,0.00,,---,0.00,VWS V13.01,2013-06-03 02:36:00,
2013-06-02 21:42:00,57.7,42.1,29.25,North,0,0.0,0.0,56,0.00,,---,0.00,VWS V13.01,2013-06-03 02:42:00,
2013-06-02 21:48:00,57.3,42.2,29.25,North,0,0.0,0.0,57,0.00,,---,0.00,VWS V13.01,2013-06-03 02:48:00,
2013-06-02 21:54:00,57.3,42.2,29.25,North,0,0.0,0.0,57,0.00,,---,0.00,VWS V13.01,2013-06-03 02:54:00,
2013-06-02 22:01:00,57.0,42.4,29.25,North,0,0.0,0.0,58,0.00,,---,0.00,VWS V13.01,2013-06-03 03:01:00,
2013-06-02 22:07:00,56.6,42.0,29.26,North,0,0.0,0.0,58,0.00,,---,0.00,VWS V13.01,2013-06-03 03:07:00,
2013-06-02 22:13:00,56.4,42.3,29.26,North,0,0.0,0.0,59,0.00,,---,0.00,VWS V13.01,2013-06-03 03:13:00,
2013-06-02 22:19:00,56.3,42.2,29.26,North,0,0.0,0.0,59,0.00,,---,0.00,VWS V13.01,2013-06-03 03:19:00,
2013-06-02 22:25:00,56.1,42.4,29.26,North,0,0.0,0.0,60,0.00,,---,0.00,VWS V13.01,2013-06-03 03:25:00,
2013-06-02 22:31:00,55.9,42.2,29.26,North,0,0.0,0.0,60,0.00,,---,0.00,VWS V13.01,2013-06-03 03:31:00,
2013-06-02 22:37:00,55.5,41.9,29.26,North,0,0.0,0.0,60,0.00,,---,0.00,VWS V13.01,2013-06-03 03:37:00,
2013-06-02 22:43:00,55.4,42.2,29.26,North,0,0.0,0.0,61,0.00,,---,0.00,VWS V13.01,2013-06-03 03:43:00,
2013-06-02 22:49:00,55.2,41.6,29.26,North,0,0.0,0.0,60,0.00,,---,0.00,VWS V13.01,2013-06-03 03:49:00,
2013-06-02 22:55:00,55.2,42.0,29.26,North,0,0.0,0.0,61,0.00,,---,0.00,VWS V13.01,2013-06-03 03:55:00,
2013-06-02 23:01:00,55.0,41.8,29.25,North,0,0.0,0.0,61,0.00,,---,0.00,VWS V13.01,2013-06-03 04:01:00,
2013-06-02 23:03:00,55.0,41.8,29.26,North,0,0.0,0.0,61,0.00,,---,0.00,VWS V13.01,2013-06-03 04:03:00,
2013-06-02 23:05:00,54.8,41.6,29.26,North,0,0.0,0.0,61,0.00,,---,0.00,VWS V13.01,2013-06-03 04:05:00,
2013-06-02 23:11:00,54.5,41.8,29.26,North,0,0.0,0.0,62,0.00,,---,0.00,VWS V13.01,2013-06-03 04:11:00,
2013-06-02 23:18:00,54.3,41.6,29.26,North,0,0.0,0.0,62,0.00,,---,0.00,VWS V13.01,2013-06-03 04:18:00,
2013-06-02 23:20:00,54.3,42.0,29.27,North,0,0.0,0.0,63,0.00,,---,0.00,VWS V13.01,2013-06-03 04:20:00,
2013-06-02 23:22:00,54.3,42.0,29.26,North,0,0.0,0.0,63,0.00,,---,0.00,VWS V13.01,2013-06-03 04:22:00,
2013-06-02 23:28:00,54.3,42.0,29.26,North,0,0.0,0.0,63,0.00,,---,0.00,VWS V13.01,2013-06-03 04:28:00,
2013-06-02 23:34:00,54.1,42.2,29.26,North,0,0.0,0.0,64,0.00,,---,0.00,VWS V13.01,2013-06-03 04:34:00,
2013-06-02 23:40:00,53.9,42.0,29.26,North,0,0.0,0.0,64,0.00,,---,0.00,VWS V13.01,2013-06-03 04:40:00,
2013-06-02 23:46:00,53.9,42.0,29.26,North,0,0.0,0.0,64,0.00,,---,0.00,VWS V13.01,2013-06-03 04:46:00,
2013-06-02 23:52:00,53.7,41.8,29.27,North,0,0.0,0.0,64,0.00,,---,0.00,VWS V13.01,2013-06-03 04:52:00,
2013-06-02 23:58:00,53.7,41.8,29.26,North,0,0.0,0.0,64,0.00,,---,0.00,VWS V13.01,2013-06-03 04:58:00,